Location: Ladrillo (historical)
(32.8195°N, 117.2231°W)
Time: 19:54:56
(UTC+00:00)

Tiros 1 - All Passes

Search period start: 04 March 2021 00:00
Search period end: 14 March 2021 00:00
Orbit: 630 x 664 km, 48.4° (Epoch: 03 March)

Date Brightness Start Highest point End Pass type
(mag) Time Alt. Az. Time Alt. Az. Time Alt. Az.
04 Mar - 08:52:49 10° S 08:56:40 25° SE 09:00:34 10° ENE night (unlit)
04 Mar - 10:33:59 10° WSW 10:38:38 52° NW 10:43:20 10° NE visible
04 Mar - 12:18:39 10° NW 12:21:43 16° NNW 12:24:46 10° NNE visible
04 Mar - 14:03:32 10° NNW 14:05:33 12° N 14:07:34 10° NNE daylight
04 Mar - 15:45:13 10° NNW 15:49:10 24° NNE 15:53:05 10° E daylight
04 Mar - 17:26:57 10° NW 17:31:44 74° SW 17:36:28 10° SE daylight
05 Mar - 09:17:44 10° SW 09:22:25 63° SE 09:27:10 10° ENE night (unlit)
05 Mar - 11:00:51 10° W 11:04:55 27° NNW 11:09:00 10° NNE visible
05 Mar - 12:46:19 10° NNW 12:48:27 13° N 12:50:35 10° NNE visible
05 Mar - 14:29:27 10° NNW 14:32:19 15° NNE 14:35:10 10° NE daylight
05 Mar - 16:10:52 10° NW 16:15:29 45° NNE 16:20:04 10° ESE daylight
05 Mar - 17:53:24 10° WNW 17:57:32 29° SW 18:01:37 10° SSE daylight
06 Mar - 08:02:51 10° S 08:06:31 22° SE 08:10:12 10° E night (unlit)
06 Mar - 09:43:44 10° WSW 09:48:25 56° NW 09:53:09 10° NE night (unlit)
06 Mar - 11:28:17 10° WNW 11:31:26 17° NNW 11:34:36 10° NNE visible
06 Mar - 13:13:18 10° NNW 13:15:16 12° N 13:17:14 10° NNE visible
06 Mar - 14:55:03 10° NNW 14:58:54 23° NNE 15:02:44 10° ENE daylight
06 Mar - 16:36:43 10° NW 16:41:33 81° SW 16:46:19 10° SE daylight
06 Mar - 18:21:50 10° WSW 18:23:07 11° SW 18:24:24 10° SW daylight
07 Mar - 08:27:36 10° SW 08:32:14 57° SE 08:36:56 10° ENE night (unlit)
07 Mar - 10:10:31 10° W 10:14:40 28° NNW 10:18:50 10° NNE visible
07 Mar - 11:55:57 10° NW 11:58:09 13° N 12:00:22 10° NNE visible
07 Mar - 13:39:16 10° NNW 13:42:02 15° NNE 13:44:48 10° NE visible
07 Mar - 15:20:41 10° NW 15:25:15 42° NNE 15:29:47 10° ESE daylight
07 Mar - 17:03:05 10° WNW 17:07:21 32° SW 17:11:35 10° SSE daylight
08 Mar - 07:12:55 10° S 07:16:21 20° SE 07:19:49 10° E night (unlit)
08 Mar - 08:53:30 10° WSW 08:58:12 61° NW 09:02:57 10° NE night (unlit)
08 Mar - 10:37:55 10° WNW 10:41:10 18° NNW 10:44:25 10° NNE visible
08 Mar - 12:23:03 10° NNW 12:24:58 12° N 12:26:53 10° NNE visible
08 Mar - 14:04:53 10° NNW 14:08:39 22° NNE 14:12:23 10° ENE daylight
08 Mar - 15:46:31 10° NW 15:51:21 89° SW 15:56:08 10° SE daylight
08 Mar - 17:30:59 10° WSW 17:32:58 12° SW 17:34:57 10° SSW daylight
09 Mar - 07:37:29 10° SSW 07:42:03 51° SE 07:46:41 10° ENE night (unlit)
09 Mar - 09:20:13 10° W 09:24:25 30° NNW 09:28:40 10° NNE night (unlit)
09 Mar - 11:05:35 10° NW 11:07:52 13° N 11:10:09 10° NNE visible
09 Mar - 12:49:05 10° NNW 12:51:45 14° NNE 12:54:24 10° NE visible
09 Mar - 14:30:30 10° NW 14:35:01 39° NNE 14:39:30 10° E daylight
09 Mar - 16:12:48 10° WNW 16:17:11 36° SW 16:21:31 10° SSE daylight
10 Mar - 06:23:00 10° S 06:26:12 18° SE 06:29:24 10° E night (unlit)
10 Mar - 08:03:17 10° WSW 08:07:59 67° NW 08:12:45 10° NE night (unlit)
10 Mar - 09:47:33 10° WNW 09:50:53 18° NNW 09:54:15 10° NNE night (unlit)
10 Mar - 11:32:47 10° NNW 11:34:40 12° N 11:36:34 10° NNE visible
10 Mar - 13:14:43 10° NNW 13:18:23 21° NNE 13:22:02 10° ENE visible
10 Mar - 14:56:18 10° NW 15:01:08 84° NE 15:05:55 10° SE daylight
10 Mar - 16:40:21 10° W 16:42:49 14° SW 16:45:17 10° SSW daylight
11 Mar - 06:47:23 10° SSW 06:51:52 46° SE 06:56:26 10° ENE night (unlit)
11 Mar - 08:29:54 10° W 08:34:10 32° NNW 08:38:29 10° NE night (unlit)
11 Mar - 10:15:13 10° NW 10:17:34 13° N 10:19:56 10° NNE visible
11 Mar - 11:58:55 10° NNW 12:01:28 14° NNE 12:04:01 10° NE visible
11 Mar - 13:40:20 10° NW 13:44:47 36° NNE 13:49:13 10° E visible
11 Mar - 15:22:31 10° WNW 15:27:00 40° SW 15:31:27 10° SSE daylight
12 Mar - 05:33:09 10° SSE 05:36:02 16° SE 05:38:57 10° E night (unlit)
12 Mar - 07:13:04 10° WSW 07:17:46 73° NW 07:22:33 10° NE night (unlit)
12 Mar - 08:57:11 10° WNW 09:00:37 19° NNW 09:04:04 10° NNE night (unlit)
12 Mar - 10:42:31 10° NNW 10:44:22 12° N 10:46:15 10° NNE visible
12 Mar - 12:24:34 10° NNW 12:28:07 20° NNE 12:31:40 10° ENE visible
12 Mar - 14:06:05 10° NW 14:10:55 77° NE 14:15:43 10° SE daylight
12 Mar - 15:49:48 10° W 15:52:39 16° SW 15:55:29 10° SSW daylight
13 Mar - 05:57:17 10° SSW 06:01:42 41° SE 06:06:09 10° ENE night (unlit)
13 Mar - 07:39:37 10° W 07:43:56 34° NNW 07:48:18 10° NE night (unlit)
13 Mar - 09:24:50 10° NW 09:27:17 14° N 09:29:44 10° NNE night (unlit)
13 Mar - 11:08:44 10° NNW 11:11:11 14° N 11:13:36 10° NE visible
13 Mar - 12:50:09 10° NW 12:54:32 34° NNE 12:58:54 10° E visible
13 Mar - 14:32:15 10° WNW 14:36:49 44° SW 14:41:21 10° SSE daylight
